Location: Gouy
(50.0008°N, 3.2556°E)
Time: 09:29:39
(UTC+00:00)

Cosmos 1782 Rocket - Pass Details

Date: 15 August 2024
Orbit: 603 x 627 km, 82.5° (Epoch: 07 September)

Event Time Altitude Azimuth Distance (km) Brightness Sun altitude
Rises 03:07:10 0° 160° (SSE) 2,887 6.8 -13.0°
Reaches altitude 10° 03:09:35 10° 149° (SSE) 1,990 6.1 -12.8°
Maximum altitude 03:13:24 29° 89° (E) 1,142 5.5 -12.3°
Drops below altitude 10° 03:17:15 10° 29° (NNE) 2,014 7.4 -11.8°
Sets 03:19:43 0° 19° (NNE) 2,929 8.1 -11.5°
